Weather in Gyeongju

South Korea     35°50′50″N   129°12′25″E
temp.,
°C
wind,
m/s
gust,
m/s
humid.,
%
clouds,
%
prec.,
mm/h
press.,
hPa
HPBL,
m
24 september, fri
fri2400:00+16nw11845 0.0 102012
03:00+15nw11891 0.0 102111
06:00+15nw219054 0.0 102214
09:00+20nne24752 0.0 1023498
12:00+23ne446497 0.3 10231438
15:00+22ne567030 0.4 10221079
18:00+19ne38842 0.2 1023396
21:00+16n129420 0.2 102444
25 september, sat
sat2500:00+16n2493100 0.1 1023129
03:00+18nne21086100 0.1 1022534
06:00+17n2397100 0.3 102379
09:00+20ene3789100 1.4 1023678
12:00+20e4888100 2.3 1023729
15:00+21ene467790 2.9 1022955
18:00+19ene398697 0.4 1022386
21:00+18ene2491100 0.7 1023107
26 september, sun
sun2600:00+17nne1291100 0.3 102252
03:00+17n1291100 0.3 102144
06:00+17nnw229098 0.0 102259
09:00+20ne477793 0.1 1022998
12:00+22ne566084 0.0 10201317
15:00+21nne57616 0.0 10191214
18:00+18nne38796 0.0 1020402
21:00+16n2389100 0.0 102073
27 september, mon
mon2700:00+17nnw258695 0.1 1020192
03:00+16n228951 0.2 101849
06:00+14nw2291100 0.0 101830
09:00+19nne367096 0.0 1019972
12:00+22nne555742 0.0 10171295
15:00+21nne455911 0.0 10161168
18:00+17nne23825 0.0 101745
21:00+17nnw2483100 0.0 1017168
28 september, tue
tue2800:00+17nw2588100 0.1 1016219
03:00+17nw249396 0.4 1016212
06:00+17nw259575 0.2 1016190
09:00+20ne368476 0.6 1016749
12:00+21ne347597 0.5 10151053
15:00+21ene347494 0.8 10131022
18:00+19nne119169 0.3 101319
21:00+18ne0192100 0.4 101315